7 * 24
多渠道服务支持
INTELSAT 4A-F2是国际通信卫星组织(ITSO)旗下的通信卫星,于1976年1月29日发射升空。它属于Intelsat 4A系列,由美国休斯空间与通信公司基于HS-353平台制造,发射质量约1515千克,设计寿命为7年,配置20路C频段转发器,主要为全球范围提供商业通信服务,是20世纪70年代国际卫星通信网络的重要组成部分,推动了跨洋通信的普及发展。
(ITSO)
| 数据来源 | 国际轨道数据 |
| 星历时间: | 2026-09-11T06:32:20+0800 14小时前 查看轨道信息 |
| 半长轴: | 42327.517km |
| 偏心率: | 0.0007121 |
| 轨道倾角: | 7.720° |
| 近地点辐角 | 298.181° |
| 升交点赤经 | 303.318° |
| 平近点角 | 82.299° |
| 近地点: | 35919.238km |
| 远地点: | 35979.522km |
| 周期: | 1444.421分钟 |
| 每日圈数: | 0.996939 |